GFSGBSN_prec_cthk_021.txt.gz
RH
44 42 40 39 38 37 36 35 33 32 30 28 27 25 23 21 18 15 13 10 8 7 7 7 8 8 7 7 8 8 11 10 5 4 8 19 23 26 26 26 37 44 45 42 44 53 55
45 45 43 41 41 40 39 37 35 34 32 30 29 27 25 23 22 19 17 15 12 10 8 7 6 7 7 7 8 7 6 9 9 7 9 14 19 24 28 26 38 39 39 38 36 39 44
49 47 45 43 42 40 39 38 36 35 33 31 29 28 26 24 23 22 20 17 15 13 10 8 7 6 5 6 8 7 7 6 7 9 7 9 15 20 26 27 36 34 36 34 33 35 40
50 48 47 45 43 42 40 38 36 34 33 31 30 29 27 26 23 22 22 20 17 15 12 10 8 7 6 5 7 7 8 8 9 9 9 9 12 17 24 27 32 32 33 32 32 31 32
46 46 45 44 42 40 38 35 33 33 32 30 29 29 28 27 25 24 24 21 18 16 14 13 10 9 7 5 5 6 7 7 9 9 9 10 12 14 20 26 30 32 31 31 31 29 30
37 37 37 37 36 35 33 32 31 30 29 28 28 27 27 27 26 25 25 22 20 19 19 18 17 16 9 7 10 9 7 7 8 9 12 12 12 14 16 23 28 29 29 31 31 32 35
26 25 25 24 22 22 24 25 25 25 24 23 23 23 23 25 26 27 26 23 22 20 20 18 17 15 11 11 9 10 9 7 10 10 12 12 15 15 14 18 24 29 28 31 31 30 33
21 20 19 18 16 16 16 16 17 18 18 17 18 19 19 19 24 27 27 26 27 27 23 19 17 15 14 12 13 12 11 9 10 11 10 13 13 12 13 15 20 26 28 29 31 31 30
20 18 17 16 14 14 13 13 12 13 13 12 13 14 14 14 18 25 27 27 27 26 23 17 18 16 16 14 13 12 12 10 10 11 10 11 10 10 11 14 16 20 24 28 30 31 33
18 17 16 16 15 15 13 13 12 12 11 11 10 10 11 11 13 17 26 26 27 26 25 18 17 15 15 15 14 12 14 12 12 12 12 12 10 10 11 12 14 17 19 28 29 32 33
17 16 16 16 16 17 16 15 15 14 13 11 9 8 9 10 11 10 18 25 26 27 33 19 16 15 14 14 13 15 13 15 14 14 14 12 10 10 11 10 11 12 17 26 30 31 31
17 18 17 17 17 16 15 16 16 15 15 14 12 10 9 9 8 10 12 21 25 28 30 21 17 16 16 14 13 14 13 17 16 16 16 13 12 12 10 11 10 10 14 19 30 33 36
17 17 18 17 17 17 17 17 17 17 17 18 14 11 10 10 11 8 10 17 24 29 22 22 22 20 19 16 14 14 14 18 18 20 19 18 15 14 13 13 13 12 13 20 25 31 25
18 17 17 16 15 15 15 16 17 16 17 18 16 12 9 17 17 12 10 21 24 21 24 24 25 23 21 20 17 17 17 19 19 17 20 22 21 15 14 14 13 14 13 18 20 24 22
17 17 16 16 15 15 16 16 17 16 17 18 17 11 11 19 24 19 16 28 20 20 26 29 29 28 27 25 23 21 19 20 19 19 19 22 20 15 14 13 13 14 16 11 14 17 21
17 17 16 16 16 17 18 18 19 19 19 21 21 13 16 19 27 29 31 29 26 24 26 28 34 36 37 33 29 28 24 20 23 24 21 19 17 15 14 15 15 14 13 14 16 18 19
17 17 17 18 18 19 20 23 26 24 23 23 23 20 23 23 23 33 42 38 28 25 28 30 32 37 40 39 35 33 31 28 27 26 26 24 20 16 16 15 13 15 15 16 16 15 14
15 17 18 20 21 23 26 29 30 28 26 27 29 33 30 31 32 44 53 53 42 34 31 36 35 36 41 46 43 38 35 35 35 32 33 29 24 20 18 15 11 12 13 16 18 16 15
16 19 21 25 28 30 32 35 37 36 34 35 36 37 37 39 52 53 58 60 59 52 39 41 43 41 46 49 49 52 47 44 42 39 42 37 32 22 18 18 16 16 15 14 14 15 14
22 25 30 33 35 38 41 44 44 42 43 46 50 51 48 56 59 61 64 65 71 70 59 51 48 49 50 56 58 59 53 52 48 43 43 39 38 32 25 20 18 17 15 14 14 16 14
26 29 30 36 39 42 46 52 57 51 52 58 62 64 69 68 72 76 74 65 74 80 80 74 61 62 59 55 61 66 64 59 50 49 46 46 48 36 33 28 24 19 17 15 15 14 15
29 30 33 35 39 45 50 59 61 60 61 70 73 76 74 78 83 88 86 77 82 76 72 83 91 73 61 60 54 60 65 66 63 55 51 51 52 46 37 28 25 23 18 15 14 14 15
31 33 35 38 41 46 49 53 59 63 70 78 83 87 85 81 89 90 92 86 77 83 82 87 81 80 71 66 58 50 54 64 63 61 60 57 56 55 49 35 33 27 16 17 15 15 15
34 35 38 41 46 50 53 56 63 70 77 85 90 92 90 83 84 90 90 86 87 85 77 78 80 79 64 58 55 50 48 45 56 57 56 59 59 60 58 45 42 18 18 18 18 17 15
33 37 43 47 51 55 59 64 69 74 77 82 88 95 93 85 85 87 86 86 86 83 72 67 69 74 63 57 56 55 47 40 39 49 52 54 58 64 63 58 37 25 24 21 22 20 19
36 41 46 50 54 57 62 68 74 82 86 83 83 87 92 88 86 87 85 84 85 82 74 70 69 65 60 60 62 64 56 50 40 48 47 50 51 56 66 62 48 30 39 35 23 24 21
43 46 49 52 57 59 61 65 72 83 88 89 86 85 86 81 79 84 79 79 79 79 76 68 65 65 64 69 73 70 62 54 56 46 54 63 68 70 67 66 47 46 47 43 35 20 26
49 55 59 60 63 67 67 67 66 70 85 92 93 93 91 83 73 72 74 75 74 74 72 63 64 67 72 77 75 72 70 65 61 46 44 64 76 84 73 73 62 55 56 62 54 42 30
50 58 68 73 76 80 83 80 72 67 71 85 93 97 98 92 75 71 68 65 64 64 70 72 73 77 76 83 92 93 98 87 72 67 46 73 72 68 73 65 60 68 77 71 67 59 43

GFSGBSN_prec_cthk_024.txt.gz
RH
46 45 44 42 40 39 38 37 36 35 33 32 31 29 28 26 24 22 21 19 16 14 11 9 8 7 7 7 8 9 10 9 8 6 7 15 32 35 35 39 43 52 52 49 42 40 42
47 47 47 45 42 41 40 37 36 34 32 30 29 28 28 26 25 24 22 21 19 17 15 13 10 8 7 6 8 8 8 9 8 5 7 10 23 31 30 31 33 42 42 43 42 38 36
45 44 44 43 42 41 39 36 34 33 31 29 28 27 26 26 25 24 23 21 20 19 17 15 12 10 8 6 7 8 7 7 9 6 6 8 13 21 25 29 28 37 40 38 41 35 32
35 34 34 35 34 33 32 31 30 28 26 24 24 24 24 25 26 26 25 23 22 20 18 16 13 11 9 6 5 7 9 7 7 9 8 9 12 17 21 25 26 33 36 36 37 33 31
27 25 24 22 20 20 22 23 23 22 20 20 20 20 19 19 22 24 26 25 23 21 20 18 16 13 11 8 6 6 8 8 8 8 10 11 12 14 18 23 28 28 34 35 35 34 32
19 18 16 15 15 15 15 16 16 17 18 18 18 18 18 17 18 23 25 26 25 24 24 22 22 18 13 10 9 6 8 9 9 10 13 13 13 14 17 20 22 25 28 31 32 34 35
18 16 15 15 14 12 11 11 11 11 11 12 14 15 15 15 15 21 23 25 25 25 23 23 22 19 14 12 12 11 10 9 10 11 13 13 15 15 13 15 19 25 27 31 32 33 34
15 14 13 13 12 12 12 11 11 11 10 9 9 10 11 11 12 17 22 25 28 30 27 21 20 18 19 17 15 13 13 10 10 11 12 15 14 12 11 13 15 21 26 29 32 33 31
14 14 14 14 14 14 13 12 12 11 10 9 8 8 8 8 8 11 16 21 23 26 27 21 20 19 20 19 17 14 14 11 10 12 13 14 12 12 12 13 15 17 21 28 31 33 35
15 14 14 14 14 14 13 13 12 12 11 10 8 8 8 8 7 7 11 16 18 23 25 20 19 19 18 19 18 17 16 13 12 12 13 14 12 12 13 12 12 16 17 23 31 33 35
19 17 16 15 14 13 13 12 13 13 12 10 8 9 9 9 10 7 9 12 18 21 30 19 17 17 17 17 17 18 17 17 13 13 13 14 12 12 13 11 11 12 13 21 28 32 33
18 18 17 17 17 16 16 15 14 14 14 12 11 11 11 11 11 12 10 10 18 23 31 20 17 17 18 17 16 17 19 21 16 15 14 14 14 13 10 10 10 10 12 16 24 31 34
18 18 17 17 15 15 15 15 15 14 14 13 11 10 14 16 16 14 12 14 20 26 18 21 22 21 21 19 17 17 20 21 20 21 18 16 15 14 12 12 12 12 15 21 23 29 24
18 16 14 14 13 14 14 14 13 14 15 12 9 10 13 18 20 17 13 20 25 19 19 22 25 24 23 24 21 21 19 20 22 20 21 21 22 17 15 13 12 14 15 21 22 23 22
13 13 13 13 14 14 15 15 15 15 15 13 10 10 14 17 19 19 20 25 24 24 25 26 26 28 29 27 25 23 23 22 23 21 22 25 23 18 16 15 14 16 16 12 15 17 19
14 13 13 14 15 17 18 17 18 18 17 16 15 14 17 18 20 21 29 29 29 34 35 30 31 33 36 35 30 30 26 33 30 28 26 22 23 18 18 19 17 15 14 18 19 20 20
13 14 17 19 21 22 22 24 25 25 23 21 21 22 22 22 23 26 40 44 33 37 38 38 36 35 38 39 36 34 34 38 35 33 32 31 22 19 19 21 18 17 17 17 17 18 19
17 20 22 23 25 28 29 31 33 33 31 30 32 35 31 29 33 41 45 47 49 39 41 45 43 45 41 42 43 41 43 44 39 39 41 38 35 27 20 18 18 17 16 17 18 17 17
22 23 24 26 30 32 34 36 40 43 41 40 41 42 42 41 50 52 52 52 54 58 54 50 51 49 49 44 46 53 49 47 43 41 46 41 40 31 25 24 20 19 19 17 15 16 16
23 23 25 26 28 31 36 41 48 47 48 48 51 54 52 57 61 62 60 56 56 62 71 67 62 60 56 54 51 59 57 54 47 47 44 42 45 40 37 32 31 27 20 18 17 18 15
24 25 27 31 34 37 41 43 48 55 55 60 66 69 73 73 71 71 71 68 71 65 66 79 85 72 63 60 57 56 57 57 51 50 47 47 48 44 41 36 32 28 25 21 19 16 17
26 27 30 34 37 41 45 50 56 61 64 71 77 80 80 83 83 81 78 82 80 74 71 70 87 91 78 68 59 58 56 61 63 56 53 53 51 49 45 37 32 31 26 24 21 19 18
27 30 36 40 41 43 48 54 63 69 76 81 83 85 87 87 90 91 88 84 85 80 71 78 82 92 85 74 73 61 55 49 57 64 58 58 55 54 51 43 39 31 23 23 21 18 17
32 40 43 46 49 53 56 59 65 71 82 91 91 91 89 89 95 95 87 82 83 84 81 76 80 80 81 81 67 55 51 45 46 54 59 59 62 58 57 48 45 29 24 24 22 19 17
35 46 52 58 61 63 65 68 68 71 78 92 95 96 93 85 86 87 85 83 82 82 80 79 78 76 75 74 67 60 54 51 42 34 46 55 58 62 58 56 36 32 33 40 45 30 18
39 45 54 62 73 79 83 85 80 71 75 84 93 96 98 85 78 82 83 82 84 83 84 82 75 74 72 69 74 68 56 50 46 42 30 42 53 60 62 56 50 36 42 37 44 42 25
38 41 47 50 59 74 85 89 92 89 74 76 84 94 97 92 76 72 73 76 78 80 83 81 78 72 70 71 73 73 65 55 54 47 54 56 64 66 61 65 45 37 45 42 37 33 35
36 36 37 42 50 68 82 90 94 96 92 77 76 81 89 87 75 69 73 75 75 77 77 77 75 73 75 76 70 70 72 65 57 39 41 55 59 63 64 68 55 45 41 53 50 48 44
33 31 33 35 47 70 84 93 96 97 97 91 81 84 88 86 75 69 65 63 63 64 66 67 66 70 74 78 81 84 90 95 94 75 51 53 48 55 48 44 48 47 50 51 56 60 53

GFSGBSN_prec_cthk_030.txt.gz
RH
23 22 20 19 18 18 18 19 19 19 19 19 18 18 17 17 17 17 18 19 21 21 20 19 17 15 12 10 7 7 8 8 7 8 10 18 32 34 36 43 54 56 53 49 47 44 42
16 16 15 14 14 13 13 13 14 15 16 16 16 16 16 16 16 16 16 17 20 23 22 21 20 18 16 13 8 7 8 8 10 11 11 16 24 34 36 40 49 49 50 48 42 38 38
12 12 11 11 11 11 10 10 10 10 10 12 13 13 13 13 13 15 15 17 19 22 24 24 22 21 20 15 9 7 11 12 13 14 13 15 20 31 30 34 33 45 41 40 37 36 39
12 10 10 10 9 9 8 8 7 7 7 7 7 9 11 12 12 12 14 15 18 21 24 25 25 23 21 17 13 9 11 17 19 17 18 21 19 28 27 25 26 32 34 33 40 34 37
13 13 12 10 9 9 8 8 7 7 7 7 6 6 6 7 8 10 12 14 16 18 22 25 26 27 22 19 16 11 13 14 19 19 20 22 23 20 26 26 25 27 29 32 38 38 38
14 13 12 12 12 12 11 10 9 8 8 8 7 7 6 6 5 6 8 12 15 18 22 27 30 29 23 18 16 14 12 13 19 18 17 17 13 13 18 20 22 25 28 30 38 37 37
13 13 12 13 12 12 11 11 11 11 10 9 8 7 7 7 6 7 6 10 16 21 19 24 29 26 25 21 20 14 11 15 20 20 14 12 12 11 9 14 17 22 24 28 33 37 34
14 14 15 14 13 12 11 11 11 12 12 12 11 10 9 7 6 7 8 11 14 16 16 13 15 21 28 25 23 18 13 15 15 18 15 14 11 10 11 11 14 17 19 22 30 36 35
13 12 12 11 11 12 12 11 11 11 10 10 10 9 8 9 9 11 13 15 16 16 17 11 13 15 20 25 24 21 16 15 14 16 13 12 12 11 12 12 12 12 17 22 24 34 33
13 12 12 12 12 12 12 12 11 10 10 10 9 8 7 7 12 12 17 14 14 17 17 10 11 14 16 22 24 24 18 17 16 15 14 13 13 12 12 11 11 11 11 18 22 26 31
13 13 13 13 12 12 11 11 10 9 9 8 8 7 6 7 9 15 14 15 15 20 13 15 14 14 15 18 21 23 24 19 16 17 15 13 13 14 13 10 11 10 10 12 18 23 29
13 12 12 12 12 12 11 11 11 10 10 9 9 8 7 10 13 14 12 13 18 22 16 17 15 16 17 19 19 22 24 22 21 19 17 16 15 15 14 14 12 12 11 12 14 18 22
12 12 12 13 13 13 12 13 13 13 13 12 11 9 10 10 12 10 10 16 19 18 17 24 23 21 20 18 21 21 24 25 26 23 19 18 16 16 14 15 14 13 16 15 15 14 14
12 13 13 13 14 14 15 15 16 16 16 15 14 12 15 15 14 11 12 19 19 22 31 31 28 24 23 23 21 21 24 26 26 25 23 22 19 15 15 14 15 14 15 13 16 11 11
11 13 14 15 16 17 18 19 20 20 19 18 18 20 22 19 16 16 20 20 21 44 44 34 28 28 27 28 26 23 23 24 26 27 26 23 21 16 16 15 15 16 14 10 13 13 13
13 15 16 17 20 22 23 24 25 25 25 24 22 23 27 24 22 24 27 37 45 46 42 36 36 38 41 37 32 27 25 30 28 31 33 28 25 21 19 16 15 16 14 15 13 17 16
13 15 17 20 21 23 26 31 33 33 33 31 30 31 32 33 33 33 33 38 35 38 41 42 45 45 48 45 40 35 38 35 35 36 37 32 27 26 22 18 17 17 18 15 14 11 12
13 15 19 23 22 24 29 35 38 41 41 40 36 34 36 43 47 41 41 39 38 44 49 45 47 46 49 53 49 48 49 46 39 38 36 35 32 31 23 22 20 18 17 16 15 17 13
17 18 20 22 23 26 32 40 43 50 49 50 44 45 44 45 50 50 48 50 49 49 54 52 60 57 58 55 57 56 55 49 42 40 43 41 33 34 31 27 24 21 19 18 17 15 17
22 23 24 26 28 31 37 48 54 58 61 61 54 52 54 56 60 61 59 61 60 58 58 59 71 76 60 53 57 62 59 52 47 43 40 41 36 33 29 28 27 25 21 20 20 18 15
24 28 30 32 35 38 43 58 66 69 72 76 68 61 68 63 65 69 68 68 66 70 64 60 75 87 86 61 67 61 66 59 53 50 43 41 40 40 38 37 32 27 24 23 21 20 18
25 28 30 30 31 35 40 48 67 83 82 89 82 68 71 69 68 67 68 72 73 71 68 70 72 80 89 84 75 89 71 66 60 56 51 45 46 44 39 36 33 31 28 26 24 22 21
24 27 29 28 29 33 35 42 66 88 96 95 93 82 77 72 68 68 65 68 66 67 70 75 71 72 78 85 74 71 67 67 58 58 55 52 45 43 40 36 36 36 30 28 26 23 22
20 25 29 29 29 32 34 37 58 82 97 98 98 96 85 81 71 67 65 64 65 68 71 71 72 71 74 73 74 64 52 54 54 51 53 53 51 44 40 40 41 27 29 29 29 26 24
19 22 27 28 29 30 30 38 58 82 97 98 98 98 95 93 83 71 69 66 64 67 66 70 73 73 70 64 69 63 50 48 42 43 47 47 52 48 46 40 32 31 31 30 31 28 26
19 20 24 25 26 27 28 38 57 78 96 98 98 98 98 97 90 87 73 69 65 65 65 67 72 72 72 75 75 71 56 52 44 46 40 43 48 49 42 44 38 33 30 30 36 35 32
18 19 22 23 23 24 28 37 52 81 98 98 98 98 98 96 92 94 82 75 71 72 70 65 69 70 70 81 78 72 62 54 50 45 57 43 45 45 45 42 35 35 39 48 41 51 44
15 18 21 21 21 24 26 37 56 86 99 98 98 96 93 92 93 96 91 78 75 76 74 70 68 70 68 78 66 68 58 60 49 41 43 49 45 39 41 41 38 33 32 34 50 52 50
14 18 20 21 21 22 26 42 61 89 97 95 93 90 87 89 86 90 86 86 85 83 78 76 72 78 75 79 79 75 73 67 61 57 45 43 40 43 38 32 33 38 33 36 42 44 45

GFSGBSN_prec_cthk_033.txt.gz
RH
12 12 11 11 11 11 10 10 11 11 11 12 13 13 14 14 15 15 15 15 15 18 20 21 20 19 16 14 8 8 7 8 8 7 9 20 31 39 40 53 56 54 57 55 51 44 42
10 9 9 8 8 8 7 7 7 8 8 8 9 10 12 12 13 13 13 14 15 16 19 22 22 20 19 17 12 9 9 8 8 9 9 16 23 35 40 46 54 56 56 53 48 46 40
11 11 11 10 9 8 8 7 7 7 6 6 6 6 6 8 10 12 12 12 13 15 18 21 24 24 23 19 14 10 10 10 11 10 11 14 18 32 36 37 42 53 47 50 47 41 37
11 11 11 11 11 10 10 9 9 8 7 7 7 6 6 6 5 7 9 11 12 14 16 20 24 26 25 21 18 12 11 13 15 15 14 14 19 27 35 37 33 43 47 43 37 36 34
11 11 10 10 9 9 9 8 8 9 9 8 8 7 6 6 6 6 6 7 10 13 15 18 23 29 27 22 20 18 13 16 19 20 21 21 22 26 33 34 28 28 35 39 38 35 36
10 10 10 10 10 10 10 10 9 9 9 9 8 7 7 6 5 6 6 7 9 12 19 23 26 30 25 24 20 19 16 17 24 23 23 25 24 22 28 33 25 25 26 35 39 39 36
11 11 11 10 9 9 9 9 9 9 9 8 8 7 7 7 7 7 8 11 15 24 21 19 26 23 24 24 23 19 21 20 25 26 25 24 24 23 16 26 23 26 30 31 33 35 38
11 11 10 10 10 10 9 8 8 8 8 8 8 7 7 7 8 10 14 14 17 18 15 10 9 14 20 25 27 21 21 19 24 24 21 20 21 15 13 15 20 22 27 29 31 33 39
12 12 11 10 9 8 8 8 8 8 7 7 6 6 6 6 9 12 17 15 14 17 18 9 8 8 11 20 24 26 20 20 22 28 18 13 13 12 12 12 13 14 20 25 27 32 34
12 11 10 9 9 9 9 9 8 8 8 8 7 6 5 5 10 11 14 11 14 17 18 10 10 10 10 13 19 24 21 21 23 24 23 16 15 13 12 12 11 11 12 20 26 29 31
11 10 10 10 10 10 10 10 10 10 10 9 8 7 7 9 11 16 11 9 11 18 16 14 15 14 13 11 14 18 23 21 20 21 22 17 15 14 13 10 11 11 13 13 19 27 29
12 12 11 12 12 13 12 13 12 13 12 11 11 10 9 14 15 14 11 9 13 21 16 18 18 17 15 14 14 19 21 22 25 22 20 20 16 15 13 13 12 12 13 13 14 16 23
12 12 14 14 14 14 14 15 17 17 17 15 14 13 12 14 16 13 12 14 21 18 16 32 28 25 20 19 18 21 21 21 22 22 20 19 17 15 14 15 13 13 13 15 14 14 15
12 14 14 15 15 15 16 17 21 22 21 19 17 18 22 21 19 15 17 22 26 21 41 43 38 32 27 24 21 21 24 24 21 22 22 21 20 16 15 14 15 14 11 13 16 13 12
12 12 13 14 16 16 16 19 22 27 24 23 20 26 28 20 20 18 24 33 37 52 58 50 38 33 25 26 29 26 23 23 23 20 22 24 21 19 17 16 16 17 13 10 15 14 12
12 13 13 14 15 15 16 19 27 31 29 27 29 33 33 22 22 26 36 45 52 63 55 48 45 45 50 49 36 34 27 26 28 25 28 28 31 24 20 20 17 18 14 15 14 18 17
16 17 18 18 18 19 21 22 29 35 38 36 42 40 37 24 29 37 43 48 47 39 36 46 44 52 65 72 61 46 37 38 35 33 31 30 33 30 26 19 17 16 19 16 13 12 16
19 21 23 24 26 26 27 28 31 36 41 50 52 49 41 31 40 43 48 49 48 47 46 49 50 50 63 70 70 60 62 60 38 37 36 36 38 35 23 21 21 18 17 18 15 16 12
20 22 24 27 27 24 26 29 32 39 49 65 63 59 50 42 45 47 51 51 67 63 61 55 51 69 78 78 83 81 73 61 45 44 46 43 38 38 35 29 23 21 19 18 17 15 18
21 22 23 26 25 23 25 27 29 40 57 76 77 69 58 56 51 52 54 59 66 75 66 59 63 54 56 67 71 74 81 67 55 47 46 47 40 37 32 26 24 24 21 19 18 18 17
18 19 21 24 26 25 26 27 28 39 62 85 86 79 77 65 58 51 57 64 70 76 68 64 67 72 68 61 80 95 85 69 58 53 51 47 47 40 37 36 33 28 24 21 19 19 18
17 18 20 21 25 26 26 28 30 38 62 91 96 91 87 79 70 61 60 73 72 65 61 61 64 73 76 69 66 79 87 79 72 63 54 48 45 46 42 41 42 35 29 24 22 21 20
17 18 19 20 23 25 26 27 32 47 71 91 97 97 97 88 81 74 65 61 58 59 60 68 70 65 67 76 71 64 77 74 69 64 58 54 47 51 48 45 45 40 30 29 28 26 22
17 18 19 19 22 24 25 27 35 49 69 93 97 97 97 92 91 88 75 61 65 60 60 60 61 64 69 71 65 52 56 59 61 61 58 56 57 50 47 46 50 33 34 31 30 30 27
17 16 17 18 21 23 23 24 35 51 72 94 97 93 91 91 91 89 86 67 62 63 59 62 67 66 64 62 62 53 40 47 50 55 57 56 56 53 47 43 37 36 35 37 34 31 29
19 15 14 16 19 21 22 23 35 59 81 93 96 91 88 90 87 94 95 80 65 65 63 86 69 64 62 67 66 66 54 46 38 43 50 54 56 54 52 48 47 41 42 36 39 37 33
19 17 16 18 20 21 22 24 40 66 88 90 91 87 86 85 88 95 97 95 81 73 74 64 62 61 64 82 84 71 54 58 50 47 50 51 55 55 51 53 46 46 49 45 45 62 46
29 26 22 23 22 22 23 27 48 77 87 88 85 83 83 82 85 90 94 94 93 90 82 71 66 72 59 75 79 76 57 55 49 49 50 60 54 50 50 50 52 48 43 51 54 58 59
36 34 34 33 27 25 27 37 63 81 83 85 81 79 83 83 85 92 94 93 92 92 93 85 74 76 74 83 83 78 75 69 69 60 44 48 53 53 49 45 45 46 48 43 47 50 54

GFSGBSN_prec_cthk_036.txt.gz
RH
10 10 9 8 8 7 7 7 6 6 6 7 8 8 9 10 11 12 12 13 13 14 14 16 18 19 19 18 11 10 7 7 7 7 6 14 30 35 37 47 53 57 63 63 61 49 46
10 10 10 10 10 10 9 9 9 8 8 7 6 6 6 6 7 9 11 11 12 13 14 16 19 21 21 19 14 13 10 7 7 8 7 9 22 34 41 41 51 56 59 63 59 53 44
10 10 9 9 8 8 8 8 8 8 8 8 8 7 7 6 6 5 5 8 11 12 12 14 18 22 24 20 17 12 13 10 9 8 8 8 17 29 40 44 48 53 55 53 55 49 46
9 9 9 8 8 8 8 9 9 8 8 7 7 7 6 6 6 5 5 6 5 10 13 13 16 20 23 24 19 16 12 12 10 10 10 10 15 24 35 42 46 44 50 49 49 51 43
9 9 9 10 9 8 8 7 7 6 6 6 6 6 6 6 5 5 6 7 8 9 10 12 18 23 23 23 23 21 16 13 13 14 12 14 15 18 29 40 41 40 41 42 49 45 38
10 10 10 10 9 9 8 8 7 7 6 6 5 5 6 6 6 7 8 8 10 11 17 14 17 25 20 22 23 23 21 16 17 18 18 18 17 16 23 32 35 36 31 38 45 39 37
10 11 11 10 9 8 8 8 7 7 7 6 6 6 6 6 7 9 12 13 11 19 16 22 24 15 20 24 23 23 23 20 21 25 24 23 23 17 16 26 29 33 27 27 38 36 37
11 11 10 10 9 9 8 8 8 7 7 7 6 5 5 5 7 9 14 13 12 13 13 11 11 14 14 18 23 23 23 21 22 26 27 28 21 18 22 24 26 32 29 30 28 34 37
12 11 10 10 9 9 9 9 9 9 9 8 7 6 6 5 7 10 13 10 10 13 14 10 8 8 8 13 16 22 22 23 23 28 27 23 19 23 24 23 21 32 31 28 28 29 37
11 11 10 10 10 11 11 11 12 12 11 10 9 8 7 6 9 11 12 8 9 11 14 8 9 9 9 9 10 15 20 26 28 27 28 25 25 21 23 22 19 21 22 25 31 27 30
11 11 12 12 13 12 11 11 12 15 14 13 12 11 9 11 10 15 11 9 9 12 19 15 15 15 13 10 11 11 18 23 27 24 31 24 19 18 20 16 13 14 17 21 26 28 27
11 11 12 12 13 13 11 10 11 15 19 17 16 14 12 15 18 16 14 11 14 22 17 29 28 25 20 15 13 16 17 18 24 27 30 29 25 18 16 14 12 13 14 15 14 25 27
12 12 12 11 11 11 11 11 12 17 20 21 18 16 18 18 19 17 18 18 20 24 19 35 38 33 28 25 19 18 23 22 17 28 27 29 29 24 16 18 15 15 14 17 18 16 18
14 14 13 12 12 12 13 14 16 20 21 20 18 20 27 26 25 21 22 23 29 21 39 43 41 39 32 31 30 23 28 28 20 21 27 25 23 21 18 17 15 15 14 14 18 16 15
17 16 15 16 17 18 18 19 20 22 25 24 21 30 37 37 29 26 29 31 38 34 33 41 41 48 52 51 42 39 26 28 26 18 24 26 22 22 21 17 17 18 14 12 13 16 15
17 17 17 18 19 19 19 18 18 20 25 27 27 40 48 47 34 35 39 36 38 39 33 37 43 47 57 55 51 56 43 32 33 23 23 25 29 23 20 20 17 17 17 16 15 20 20
17 17 18 19 18 18 18 18 18 19 22 27 34 48 54 56 43 47 48 37 38 38 37 37 39 42 50 74 70 70 62 55 44 42 33 26 29 27 26 22 19 18 22 20 15 13 18
16 16 17 18 18 19 19 19 19 21 21 28 56 66 60 54 53 51 47 47 45 45 51 53 51 43 60 75 79 88 87 84 63 50 45 34 27 31 34 26 23 20 19 20 18 18 16
15 16 16 17 17 18 20 21 22 22 30 47 63 65 65 59 60 56 55 50 42 51 63 63 55 48 60 70 79 89 93 89 69 54 56 52 34 35 39 34 28 23 20 19 21 16 18
15 15 16 17 18 18 20 23 22 23 38 51 68 65 66 62 67 66 61 50 43 51 74 68 60 59 51 69 71 92 89 86 76 65 52 49 42 40 37 31 31 27 25 23 21 20 18
15 16 16 16 18 19 22 24 23 26 45 58 69 76 74 70 74 74 64 60 64 68 72 69 56 65 63 67 76 83 89 80 83 70 55 53 48 44 42 37 32 25 23 24 19 21 20
16 17 18 16 17 19 22 23 24 27 49 72 79 87 79 80 78 77 76 67 70 58 53 55 55 64 70 63 70 77 80 81 89 73 64 54 51 52 49 45 45 39 28 24 24 21 24
17 18 19 17 16 18 21 22 22 26 53 73 83 89 89 83 78 81 82 77 57 56 62 61 61 55 51 64 71 68 68 67 74 72 68 64 61 57 49 49 46 44 37 29 26 24 24
17 18 19 18 16 16 18 20 21 30 59 76 86 86 89 84 82 83 83 88 79 61 60 54 51 57 54 52 52 56 58 56 63 65 65 64 56 56 52 56 60 46 40 35 31 26 25
17 19 21 20 19 19 20 21 24 38 68 81 88 87 88 87 87 87 89 92 89 78 65 68 77 74 80 53 50 58 56 48 51 57 60 60 56 58 54 60 54 48 43 38 37 35 29
28 34 34 33 29 26 23 24 28 49 78 84 89 89 90 94 90 95 96 94 95 95 74 67 66 63 55 59 55 64 48 45 41 40 52 57 59 60 57 57 52 48 43 42 39 38 39
35 36 34 35 35 33 30 31 36 61 82 85 88 90 92 96 95 96 97 97 93 91 82 73 63 55 70 80 85 70 57 60 49 44 43 51 61 57 57 54 50 53 48 44 45 63 56
36 34 33 31 30 30 34 38 50 69 82 88 87 89 93 94 94 97 97 98 97 96 96 79 69 85 75 86 85 94 81 73 53 53 57 49 50 60 56 54 61 58 54 58 71 67 56
34 33 31 28 25 35 40 48 64 77 81 86 86 87 92 95 95 98 98 98 98 95 96 94 77 71 83 92 90 79 76 72 68 61 56 59 62 56 55 52 51 57 57 60 56 60 66